Find Starlink 5019

NORAD ID: 55407 Int'l Des: 2023-014 Owner: SPXS Country: US Constellation: starlink operational
LEOCIRCULAR

現在のビュー

3D地球を読み込み中...

About Starlink 5019

Starlink 5019 (NORAD 55407) is a starlink constellation satellite (v1.5) launched Jan 31, 2023 by SPXS of US. It operates in LEO, CIRCULAR orbit with a mass of 305.00 kg.

次回通過

Passes for default location (London). Set your location on the main map for personalized predictions.

高度履歴

Loading altitude history...

軌道要素

1 55407U 23014S 26224.57705492 .00000130 00000-0 18725-4 0 9997
2 55407 70.0003 31.4978 0002704 268.1423 91.9426 14.98332999195401
Epoch: Aug 12, 2026 • Age: 11 hours

現在のステータス

高度 594.8 km
遠地点 / 近地点 N/A
速度 7.56 km/s
衛星直下点 -66.33°S, 2.36°E
打ち上げ日 Jan 31, 2023
運用期間 3.5 years
タイプ internet

技術仕様

分類 Payload
質量 305.00 kg
乾燥質量 290.00 kg
総質量 305.00 kg
長さ 0.20 m
直径 2.80 m
スパン 9.00 m
形状 Box + pan
製造者 SPXS
バスタイプ Starlink
フェーズステータス In Orbit
所有者/国 SPXS/US

Most Searched